Regional Weather Roundup
Issued by NWS

Home | Current Version | Previous Version | Text Only | Print | Product List | Glossary On
Versions: 1 2 3 4 5 6 7 8 9 10 11 12 13 14 15 16 17 18 19 20 21 22 23 24 25 26 27 28 29 30 31 32 33 34 35 36 37 38 39 40 41 42 43 44 45 46 47 48 49 50
000
ASUS43 KBIS 182359
RWRND

NORTH DAKOTA REGIONAL WEATHER ROUNDUP
NATIONAL WEATHER SERVICE BISMARCK ND
700 PM CDT FRI APR 18 2014

NOTE: "FAIR" INDICATES FEW OR NO CLOUDS BELOW 12,000 FEET WITH NO
SIGNIFICANT WEATHER AND/OR OBSTRUCTIONS TO VISIBILITY.


NDZ001>003-009>011-017-190100-
NORTHWEST NORTH DAKOTA

CITY           SKY/WX    TMP DP  RH WIND       PRES   REMARKS
WILLISTON      CLOUDY    55  35  47 S8        29.66S
6HR MIN TEMP:  48; 6HR MAX TEMP:  57; 6HR PCP: TRACE;

MINOT          CLOUDY    50  34  54 E23G33    29.72F
$$

NDZ018>021-031>035-040>046-190100-
SOUTHWEST NORTH DAKOTA

CITY           SKY/WX    TMP DP  RH WIND       PRES   REMARKS
BISMARCK       CLOUDY    56  38  50 E23G31    29.67F
6HR MIN TEMP:  54; 6HR MAX TEMP:  66;

GARRISON         N/A     52  36  54 E23G35    29.68S
6HR MIN TEMP:  49; 6HR MAX TEMP:  58;

HETTINGER ARPT CLOUDY    64  40  41 E9        29.61S
$$

NDZ004>008-012>016-024-026-027-054-190100-
NORTHEAST NORTH DAKOTA

CITY           SKY/WX    TMP DP  RH WIND       PRES   REMARKS
GRAND FORKS    CLOUDY    48  30  49 SE23G32   30.01F
DEVILS LAKE    CLOUDY    45  28  53 SE29      29.89S
$$

NDZ022-023-025-028>030-036>039-047>053-190100-
SOUTHEAST NORTH DAKOTA

CITY           SKY/WX    TMP DP  RH WIND       PRES   REMARKS
FARGO          CLOUDY    48  27  44 SE22G35   30.01F
6HR MIN TEMP:  32; 6HR MAX TEMP:  53; 6HR PCP: TRACE;

$$




USA.gov is the U.S. government's official web portal to all federal, state and local government web resources and services.